"Sample Date","Sample Time","Sample Value","Units","Flow Rate","Laser Status","Micron Size 0","Counts/Channel 0","Micron Size 1","Counts/Channel 1","Micron Size 2","Counts/Channel 2","Micron Size 3","Counts/Channel 3","Micron Size 4","Counts/Channel 4","Micron Size 5","Counts/Channel 5","Micron Size 6","Counts/Channel 6","Micron Size 7","Counts/Channel 7","Micron Size 8","Counts/Channel 8","Micron Size 9","Counts/Channel 9","Micron Size 10","Counts/Channel 10","Micron Size 11","Counts/Channel 11","Micron Size 12","Counts/Channel 12","Micron Size 13","Counts/Channel 13","Micron Size 14","Counts/Channel 14","Micron Size 15","Counts/Channel 15","Micron Size 16","Counts/Channel 16","Micron Size 17","Counts/Channel 17","Micron Size 18","Counts/Channel 18","Micron Size 19","Counts/Channel 19","Micron Size 20","Counts/Channel 20","Micron Size 21","Counts/Channel 21","Micron Size 22","Counts/Channel 22","Micron Size 23","Counts/Channel 23","Micron Size 24","Counts/Channel 24","Micron Size 25","Counts/Channel 25","Micron Size 26","Counts/Channel 26","Micron Size 27","Counts/Channel 27","Micron Size 28","Counts/Channel 28","Micron Size 29","Counts/Channel 29","Micron Size 30","Counts/Channel 30","Micron Size 31","Counts/Channel 31"
"03/03/08","21:00:04",51919.000,"cc",28372.758,1,0.100,42631.000,0.200,4555.000,0.300,2070.000,0.500,1964.000,1.000,699.000,5.000,0
"03/03/08","21:00:10",50322.000,"cc",28275.006,1,0.100,42037.000,0.200,4231.000,0.300,1766.000,0.500,1660.000,1.000,628.000,5.000,0
"03/03/08","21:00:16",50019.000,"cc",28285.633,1,0.100,41906.000,0.200,4053.000,0.300,1764.000,0.500,1723.000,1.000,573.000,5.000,0
"03/03/08","21:00:22",49659.000,"cc",28290.223,1,0.100,41634.000,0.200,3969.000,0.300,1687.000,0.500,1738.000,1.000,631.000,5.000,0
"03/03/08","21:00:28",50571.000,"cc",28369.383,1,0.100,42002.000,0.200,4194.000,0.300,1901.000,0.500,1803.000,1.000,671.000,5.000,0
"03/03/08","21:00:34",52400.000,"cc",28352.244,1,0.100,43092.000,0.200,4384.000,0.300,2086.000,0.500,2091.000,1.000,747.000,5.000,0
"03/03/08","21:00:40",51338.000,"cc",28344.107,1,0.100,42319.000,0.200,4459.000,0.300,1954.000,0.500,1891.000,1.000,715.000,5.000,0
"03/03/08","21:00:46",51350.000,"cc",28333.707,1,0.100,42631.000,0.200,4281.000,0.300,1919.000,0.500,1825.000,1.000,694.000,5.000,0
"03/03/08","21:00:52",50025.000,"cc",28288.201,1,0.100,41749.000,0.200,4067.000,0.300,1775.000,0.500,1783.000,1.000,651.000,5.000,0
"03/03/08","21:00:58",51246.000,"cc",28339.723,1,0.100,42660.000,0.200,4347.000,0.300,1780.000,0.500,1791.000,1.000,668.000,5.000,0
"03/03/08","21:01:04",51180.000,"cc",28292.236,1,0.100,42710.000,0.200,4237.000,0.300,1812.000,0.500,1808.000,1.000,613.000,5.000,0
"03/03/08","21:01:10",51599.000,"cc",28299.451,1,0.100,42872.000,0.200,4258.000,0.300,1970.000,0.500,1834.000,1.000,665.000,5.000,0
"03/03/08","21:01:16",50882.000,"cc",28246.443,1,0.100,42089.000,0.200,4317.000,0.300,1972.000,0.500,1804.000,1.000,700.000,5.000,0
"03/03/08","21:01:22",51462.000,"cc",28338.535,1,0.100,42655.000,0.200,4306.000,0.300,1991.000,0.500,1862.000,1.000,648.000,5.000,0
"03/03/08","21:01:28",52237.000,"cc",28377.074,1,0.100,42927.000,0.200,4543.000,0.300,2074.000,0.500,1963.000,1.000,730.000,5.000,0
"03/03/08","21:01:34",51453.000,"cc",28289.424,1,0.100,42605.000,0.200,4346.000,0.300,1975.000,0.500,1887.000,1.000,640.000,5.000,0
"03/03/08","21:01:40",53395.000,"cc",28268.465,1,0.100,43334.000,0.200,4861.000,0.300,2377.000,0.500,2087.000,1.000,736.000,5.000,0
"03/03/08","21:01:46",54046.000,"cc",28335.951,1,0.100,43840.000,0.200,4968.000,0.300,2335.000,0.500,2181.000,1.000,722.000,5.000,0
"03/03/08","21:01:52",54725.000,"cc",28320.201,1,0.100,43755.000,0.200,5256.000,0.300,2564.000,0.500,2290.000,1.000,860.000,5.000,0
"03/03/08","21:01:58",53479.000,"cc",28339.693,1,0.100,43582.000,0.200,4850.000,0.300,2271.000,0.500,2087.000,1.000,689.000,5.000,0
"03/03/08","21:02:04",53115.000,"cc",28411.461,1,0.100,42901.000,0.200,4892.000,0.300,2415.000,0.500,2114.000,1.000,793.000,5.000,0
"03/03/08","21:02:10",53621.000,"cc",28298.893,1,0.100,43296.000,0.200,4916.000,0.300,2433.000,0.500,2244.000,1.000,732.000,5.000,0
"03/03/08","21:02:16",52944.000,"cc",28288.568,1,0.100,43109.000,0.200,4763.000,0.300,2318.000,0.500,2078.000,1.000,676.000,5.000,0
"03/03/08","21:02:22",53352.000,"cc",28327.205,1,0.100,43232.000,0.200,4856.000,0.300,2335.000,0.500,2160.000,1.000,769.000,5.000,0
"03/03/08","21:02:28",52717.000,"cc",28274.965,1,0.100,43108.000,0.200,4704.000,0.300,2181.000,0.500,2026.000,1.000,698.000,5.000,0
"03/03/08","21:02:34",51408.000,"cc",28303.451,1,0.100,42538.000,0.200,4367.000,0.300,1958.000,0.500,1866.000,1.000,679.000,5.000,0
"03/03/08","21:02:40",52442.000,"cc",28355.902,1,0.100,43178.000,0.200,4585.000,0.300,2066.000,0.500,1904.000,1.000,709.000,5.000,0
"03/03/08","21:02:46",51418.000,"cc",28349.227,1,0.100,43249.000,0.200,4183.000,0.300,1774.000,0.500,1656.000,1.000,556.000,5.000,0
"03/03/08","21:02:52",49989.000,"cc",28307.879,1,0.100,42391.000,0.200,3877.000,0.300,1627.000,0.500,1561.000,1.000,533.000,5.000,0
"03/03/08","21:02:58",48247.000,"cc",28295.092,1,0.100,41287.000,0.200,3489.000,0.300,1474.000,0.500,1482.000,1.000,515.000,5.000,0
"03/03/08","21:03:04",48501.000,"cc",28276.348,1,0.100,41254.000,0.200,3672.000,0.300,1534.000,0.500,1473.000,1.000,568.000,5.000,0
"03/03/08","21:03:10",48935.000,"cc",28335.799,1,0.100,41319.000,0.200,3683.000,0.300,1686.000,0.500,1650.000,1.000,597.000,5.000,0
"03/03/08","21:03:16",47363.000,"cc",28310.008,1,0.100,40356.000,0.200,3548.000,0.300,1396.000,0.500,1533.000,1.000,530.000,5.000,0
"03/03/08","21:03:22",47444.000,"cc",28301.127,1,0.100,40344.000,0.200,3557.000,0.300,1482.000,0.500,1533.000,1.000,528.000,5.000,0
"03/03/08","21:03:28",47492.000,"cc",28277.693,1,0.100,40483.000,0.200,3471.000,0.300,1472.000,0.500,1501.000,1.000,565.000,5.000,0
"03/03/08","21:03:34",48992.000,"cc",28339.232,1,0.100,41185.000,0.200,4004.000,0.300,1647.000,0.500,1585.000,1.000,571.000,5.000,0
"03/03/08","21:03:40",49088.000,"cc",28305.902,1,0.100,41391.000,0.200,3873.000,0.300,1697.000,0.500,1545.000,1.000,582.000,5.000,0
"03/03/08","21:03:46",49002.000,"cc",28291.045,1,0.100,41230.000,0.200,3922.000,0.300,1616.000,0.500,1622.000,1.000,612.000,5.000,0
"03/03/08","21:03:52",48698.000,"cc",28314.258,1,0.100,41329.000,0.200,3783.000,0.300,1569.000,0.500,1485.000,1.000,532.000,5.000,0
"03/03/08","21:03:58",48514.000,"cc",28316.346,1,0.100,41157.000,0.200,3698.000,0.300,1602.000,0.500,1500.000,1.000,557.000,5.000,0
"03/03/08","21:04:04",52389.000,"cc",28314.361,1,0.100,42526.000,0.200,4785.000,0.300,2247.000,0.500,2087.000,1.000,744.000,5.000,0
"03/03/08","21:04:10",52316.000,"cc",28345.824,1,0.100,42351.000,0.200,4806.000,0.300,2283.000,0.500,2113.000,1.000,763.000,5.000,0
"03/03/08","21:04:16",50802.000,"cc",28268.094,1,0.100,41764.000,0.200,4397.000,0.300,1990.000,0.500,1922.000,1.000,729.000,5.000,0
"03/03/08","21:04:22",50195.000,"cc",28327.520,1,0.100,41746.000,0.200,4159.000,0.300,1889.000,0.500,1739.000,1.000,662.000,5.000,0
"03/03/08","21:04:28",48284.000,"cc",28277.816,1,0.100,40823.000,0.200,3698.000,0.300,1567.000,0.500,1613.000,1.000,583.000,5.000,0
"03/03/08","21:04:34",48482.000,"cc",28309.070,1,0.100,41166.000,0.200,3621.000,0.300,1576.000,0.500,1577.000,1.000,542.000,5.000,0
"03/03/08","21:04:40",48619.000,"cc",28366.322,1,0.100,40951.000,0.200,3741.000,0.300,1699.000,0.500,1639.000,1.000,589.000,5.000,0
"03/03/08","21:04:46",47227.000,"cc",28312.768,1,0.100,40400.000,0.200,3537.000,0.300,1376.000,0.500,1424.000,1.000,490.000,5.000,0
"03/03/08","21:04:52",46615.000,"cc",28333.588,1,0.100,39925.000,0.200,3324.000,0.300,1413.000,0.500,1431.000,1.000,522.000,5.000,0
"03/03/08","21:04:58",46226.000,"cc",28292.957,1,0.100,39766.000,0.200,3269.000,0.300,1312.000,0.500,1358.000,1.000,521.000,5.000,0
"03/03/08","21:05:04",46946.000,"cc",28310.244,1,0.100,39901.000,0.200,3559.000,0.300,1441.000,0.500,1478.000,1.000,567.000,5.000,0
"03/03/08","21:05:10",49464.000,"cc",28287.494,1,0.100,41490.000,0.200,4059.000,0.300,1691.000,0.500,1641.000,1.000,583.000,5.000,0
"03/03/08","21:05:16",48358.000,"cc",28315.123,1,0.100,40889.000,0.200,3722.000,0.300,1604.000,0.500,1600.000,1.000,543.000,5.000,0
"03/03/08","21:05:22",47636.000,"cc",28401.143,1,0.100,40469.000,0.200,3607.000,0.300,1516.000,0.500,1492.000,1.000,552.000,5.000,0
"03/03/08","21:05:28",48030.000,"cc",28238.104,1,0.100,40458.000,0.200,3769.000,0.300,1625.000,0.500,1574.000,1.000,604.000,5.000,0
"03/03/08","21:05:34",45980.000,"cc",28301.973,1,0.100,39773.000,0.200,3160.000,0.300,1292.000,0.500,1268.000,1.000,487.000,5.000,0
"03/03/08","21:05:40",46616.000,"cc",28330.523,1,0.100,40435.000,0.200,3246.000,0.300,1156.000,0.500,1306.000,1.000,473.000,5.000,0
"03/03/08","21:05:46",47119.000,"cc",28338.500,1,0.100,40732.000,0.200,3304.000,0.300,1262.000,0.500,1314.000,1.000,507.000,5.000,0
"03/03/08","21:05:52",47825.000,"cc",28301.865,1,0.100,41287.000,0.200,3456.000,0.300,1273.000,0.500,1333.000,1.000,476.000,5.000,0
"03/03/08","21:05:58",48511.000,"cc",28354.070,1,0.100,41441.000,0.200,3629.000,0.300,1486.000,0.500,1427.000,1.000,528.000,5.000,0
"03/03/08","21:06:04",48744.000,"cc",28344.053,1,0.100,41427.000,0.200,3754.000,0.300,1526.000,0.500,1498.000,1.000,539.000,5.000,0
"03/03/08","21:06:10",49920.000,"cc",28240.570,1,0.100,42163.000,0.200,4001.000,0.300,1639.000,0.500,1567.000,1.000,550.000,5.000,0
"03/03/08","21:06:16",48695.000,"cc",28318.035,1,0.100,41064.000,0.200,3850.000,0.300,1630.000,0.500,1575.000,1.000,576.000,5.000,0
"03/03/08","21:06:22",48948.000,"cc",28321.832,1,0.100,41410.000,0.200,3829.000,0.300,1610.000,0.500,1534.000,1.000,565.000,5.000,0
"03/03/08","21:06:28",49816.000,"cc",28318.106,1,0.100,42060.000,0.200,3980.000,0.300,1665.000,0.500,1566.000,1.000,544.000,5.000,1.000
"03/03/08","21:06:34",50031.000,"cc",28326.807,1,0.100,42221.000,0.200,3974.000,0.300,1635.000,0.500,1580.000,1.000,621.000,5.000,0
"03/03/08","21:06:40",50421.000,"cc",28380.205,1,0.100,42253.000,0.200,4102.000,0.300,1754.000,0.500,1713.000,1.000,599.000,5.000,0
"03/03/08","21:06:46",49120.000,"cc",28267.195,1,0.100,41565.000,0.200,3879.000,0.300,1577.000,0.500,1555.000,1.000,544.000,5.000,0
"03/03/08","21:06:52",47587.000,"cc",28283.119,1,0.100,40600.000,0.200,3522.000,0.300,1427.000,0.500,1510.000,1.000,528.000,5.000,0
"03/03/08","21:06:58",48251.000,"cc",28350.965,1,0.100,40702.000,0.200,3757.000,0.300,1625.000,0.500,1607.000,1.000,560.000,5.000,0
"03/03/08","21:07:04",48177.000,"cc",28298.940,1,0.100,40525.000,0.200,3748.000,0.300,1624.000,0.500,1640.000,1.000,640.000,5.000,0
"03/03/08","21:07:10",47555.000,"cc",28288.959,1,0.100,40308.000,0.200,3621.000,0.300,1504.000,0.500,1561.000,1.000,561.000,5.000,0
"03/03/08","21:07:16",48871.000,"cc",28252.094,1,0.100,40735.000,0.200,3894.000,0.300,1826.000,0.500,1822.000,1.000,594.000,5.000,0
"03/03/08","21:07:22",50449.000,"cc",28366.283,1,0.100,41573.000,0.200,4226.000,0.300,2029.000,0.500,1989.000,1.000,632.000,5.000,0
"03/03/08","21:07:28",50835.000,"cc",28314.275,1,0.100,41382.000,0.200,4535.000,0.300,2144.000,0.500,2004.000,1.000,770.000,5.000,0
"03/03/08","21:07:34",52127.000,"cc",28349.410,1,0.100,42208.000,0.200,4661.000,0.300,2311.000,0.500,2200.000,1.000,747.000,5.000,0
"03/03/08","21:07:40",50135.000,"cc",28386.020,1,0.100,40911.000,0.200,4391.000,0.300,2132.000,0.500,1975.000,1.000,726.000,5.000,0
"03/03/08","21:07:46",49849.000,"cc",28325.615,1,0.100,40940.000,0.200,4413.000,0.300,1958.000,0.500,1861.000,1.000,677.000,5.000,0
"03/03/08","21:07:52",49339.000,"cc",28326.295,1,0.100,41064.000,0.200,4138.000,0.300,1814.000,0.500,1679.000,1.000,644.000,5.000,0
"03/03/08","21:07:58",49312.000,"cc",28293.838,1,0.100,41016.000,0.200,4044.000,0.300,1858.000,0.500,1746.000,1.000,648.000,5.000,0
"03/03/08","21:08:04",49487.000,"cc",28363.359,1,0.100,40724.000,0.200,4404.000,0.300,1992.000,0.500,1769.000,1.000,598.000,5.000,0
"03/03/08","21:08:10",49255.000,"cc",28318.014,1,0.100,41047.000,0.200,4024.000,0.300,1887.000,0.500,1675.000,1.000,622.000,5.000,0
"03/03/08","21:08:16",49077.000,"cc",28273.111,1,0.100,40942.000,0.200,3930.000,0.300,1879.000,0.500,1717.000,1.000,609.000,5.000,0
"03/03/08","21:08:22",48304.000,"cc",28294.137,1,0.100,40684.000,0.200,3816.000,0.300,1606.000,0.500,1660.000,1.000,538.000,5.000,0
"03/03/08","21:08:28",47957.000,"cc",28340.574,1,0.100,40240.000,0.200,3906.000,0.300,1687.000,0.500,1548.000,1.000,576.000,5.000,0
"03/03/08","21:08:34",49433.000,"cc",28328.154,1,0.100,41753.000,0.200,3926.000,0.300,1616.000,0.500,1607.000,1.000,531.000,5.000,0
"03/03/08","21:08:40",46975.000,"cc",28298.514,1,0.100,40148.000,0.200,3513.000,0.300,1390.000,0.500,1398.000,1.000,526.000,5.000,0
"03/03/08","21:08:46",47492.000,"cc",28324.762,1,0.100,40521.000,0.200,3588.000,0.300,1455.000,0.500,1410.000,1.000,518.000,5.000,0
"03/03/08","21:08:52",47484.000,"cc",28330.035,1,0.100,40665.000,0.200,3446.000,0.300,1410.000,0.500,1448.000,1.000,515.000,5.000,0
"03/03/08","21:08:58",48525.000,"cc",28261.328,1,0.100,41227.000,0.200,3712.000,0.300,1561.000,0.500,1458.000,1.000,567.000,5.000,0
"03/03/08","21:09:04",48323.000,"cc",28317.777,1,0.100,40739.000,0.200,3871.000,0.300,1602.000,0.500,1595.000,1.000,516.000,5.000,0
"03/03/08","21:09:10",49685.000,"cc",28324.256,1,0.100,41134.000,0.200,4325.000,0.300,1889.000,0.500,1730.000,1.000,607.000,5.000,0
"03/03/08","21:09:16",48725.000,"cc",28310.377,1,0.100,40822.000,0.200,3989.000,0.300,1736.000,0.500,1580.000,1.000,598.000,5.000,0
"03/03/08","21:09:22",48058.000,"cc",28289.471,1,0.100,40616.000,0.200,3713.000,0.300,1633.000,0.500,1584.000,1.000,512.000,5.000,0
"03/03/08","21:09:28",47686.000,"cc",28293.768,1,0.100,40293.000,0.200,3737.000,0.300,1621.000,0.500,1462.000,1.000,573.000,5.000,0
"03/03/08","21:09:34",46925.000,"cc",28345.449,1,0.100,39831.000,0.200,3588.000,0.300,1474.000,0.500,1493.000,1.000,539.000,5.000,0
"03/03/08","21:09:40",47655.000,"cc",28372.412,1,0.100,40203.000,0.200,3732.000,0.300,1649.000,0.500,1527.000,1.000,544.000,5.000,0
"03/03/08","21:09:46",47666.000,"cc",28274.135,1,0.100,40348.000,0.200,3634.000,0.300,1602.000,0.500,1526.000,1.000,556.000,5.000,0
"03/03/08","21:09:52",47695.000,"cc",28327.076,1,0.100,40181.000,0.200,3836.000,0.300,1568.000,0.500,1587.000,1.000,523.000,5.000,0
"03/03/08","21:09:58",48465.000,"cc",28385.320,1,0.100,40543.000,0.200,3904.000,0.300,1771.000,0.500,1702.000,1.000,545.000,5.000,0
"03/03/08","21:10:04",47897.000,"cc",28334.402,1,0.100,40038.000,0.200,3943.000,0.300,1685.000,0.500,1631.000,1.000,600.000,5.000,0
"03/03/08","21:10:10",47683.000,"cc",28314.815,1,0.100,40013.000,0.200,3782.000,0.300,1641.000,0.500,1635.000,1.000,611.000,5.000,1.000
"03/03/08","21:10:16",47240.000,"cc",28254.080,1,0.100,39833.000,0.200,3692.000,0.300,1561.000,0.500,1604.000,1.000,550.000,5.000,0
"03/03/08","21:10:22",47480.000,"cc",28335.570,1,0.100,39941.000,0.200,3762.000,0.300,1623.000,0.500,1590.000,1.000,564.000,5.000,0
"03/03/08","21:10:28",46581.000,"cc",28300.977,1,0.100,39650.000,0.200,3584.000,0.300,1439.000,0.500,1411.000,1.000,497.000,5.000,0
"03/03/08","21:10:34",47472.000,"cc",28371.607,1,0.100,40206.000,0.200,3644.000,0.300,1624.000,0.500,1471.000,1.000,527.000,5.000,0
"03/03/08","21:10:40",46613.000,"cc",28286.121,1,0.100,39602.000,0.200,3544.000,0.300,1480.000,0.500,1473.000,1.000,514.000,5.000,0
"03/03/08","21:10:46",46445.000,"cc",28288.563,1,0.100,39552.000,0.200,3445.000,0.300,1477.000,0.500,1449.000,1.000,522.000,5.000,0
"03/03/08","21:10:52",46247.000,"cc",28287.684,1,0.100,39258.000,0.200,3535.000,0.300,1470.000,0.500,1471.000,1.000,513.000,5.000,0
"03/03/08","21:10:58",46825.000,"cc",28318.715,1,0.100,39913.000,0.200,3524.000,0.300,1403.000,0.500,1482.000,1.000,503.000,5.000,0
"03/03/08","21:11:04",45568.000,"cc",28280.547,1,0.100,38946.000,0.200,3419.000,0.300,1365.000,0.500,1389.000,1.000,449.000,5.000,0
"03/03/08","21:11:10",45330.000,"cc",28329.342,1,0.100,39123.000,0.200,3206.000,0.300,1261.000,0.500,1283.000,1.000,457.000,5.000,0
"03/03/08","21:11:16",46165.000,"cc",28405.674,1,0.100,39444.000,0.200,3455.000,0.300,1471.000,0.500,1328.000,1.000,467.000,5.000,0
"03/03/08","21:11:22",45463.000,"cc",28292.664,1,0.100,39045.000,0.200,3159.000,0.300,1387.000,0.500,1359.000,1.000,513.000,5.000,0
"03/03/08","21:11:28",45285.000,"cc",28256.023,1,0.100,38919.000,0.200,3295.000,0.300,1303.000,0.500,1320.000,1.000,448.000,5.000,0
"03/03/08","21:11:34",46060.000,"cc",28317.440,1,0.100,39668.000,0.200,3259.000,0.300,1299.000,0.500,1356.000,1.000,478.000,5.000,0
"03/03/08","21:11:40",45500.000,"cc",28322.098,1,0.100,39393.000,0.200,3169.000,0.300,1233.000,0.500,1250.000,1.000,455.000,5.000,0
"03/03/08","21:11:46",45575.000,"cc",28353.383,1,0.100,39519.000,0.200,3163.000,0.300,1213.000,0.500,1244.000,1.000,436.000,5.000,0
"03/03/08","21:11:52",45885.000,"cc",28368.092,1,0.100,39283.000,0.200,3368.000,0.300,1401.000,0.500,1325.000,1.000,508.000,5.000,0
"03/03/08","21:11:58",44920.000,"cc",28345.453,1,0.100,38839.000,0.200,3119.000,0.300,1242.000,0.500,1287.000,1.000,433.000,5.000,0
"03/03/08","21:12:04",45407.000,"cc",28222.166,1,0.100,39214.000,0.200,3212.000,0.300,1270.000,0.500,1234.000,1.000,477.000,5.000,0
"03/03/08","21:12:10",46219.000,"cc",28314.254,1,0.100,39966.000,0.200,3308.000,0.300,1221.000,0.500,1278.000,1.000,446.000,5.000,0
"03/03/08","21:12:16",47155.000,"cc",28336.111,1,0.100,40345.000,0.200,3544.000,0.300,1396.000,0.500,1372.000,1.000,498.000,5.000,0
"03/03/08","21:12:22",46624.000,"cc",28349.393,1,0.100,40000.000,0.200,3473.000,0.300,1337.000,0.500,1338.000,1.000,476.000,5.000,0
"03/03/08","21:12:28",46021.000,"cc",28277.107,1,0.100,39759.000,0.200,3249.000,0.300,1265.000,0.500,1289.000,1.000,459.000,5.000,0
"03/03/08","21:12:34",47653.000,"cc",28298.152,1,0.100,40468.000,0.200,3618.000,0.300,1622.000,0.500,1445.000,1.000,500.000,5.000,0
"03/03/08","21:12:40",47568.000,"cc",28335.258,1,0.100,40581.000,0.200,3511.000,0.300,1477.000,0.500,1496.000,1.000,503.000,5.000,0
"03/03/08","21:12:46",46981.000,"cc",28339.594,1,0.100,40218.000,0.200,3479.000,0.300,1375.000,0.500,1378.000,1.000,531.000,5.000,0
"03/03/08","21:12:52",47124.000,"cc",28296.668,1,0.100,40167.000,0.200,3612.000,0.300,1467.000,0.500,1382.000,1.000,496.000,5.000,0
"03/03/08","21:12:58",46195.000,"cc",28297.129,1,0.100,39639.000,0.200,3305.000,0.300,1380.000,0.500,1403.000,1.000,468.000,5.000,0
"03/03/08","21:13:04",46039.000,"cc",28334.361,1,0.100,39736.000,0.200,3264.000,0.300,1263.000,0.500,1334.000,1.000,442.000,5.000,0
"03/03/08","21:13:10",49800.000,"cc",28322.945,1,0.100,42760.000,0.200,3716.000,0.300,1416.000,0.500,1383.000,1.000,525.000,5.000,0
"03/03/08","21:13:16",47386.000,"cc",28359.606,1,0.100,40567.000,0.200,3544.000,0.300,1426.000,0.500,1371.000,1.000,478.000,5.000,0
"03/03/08","21:13:22",47121.000,"cc",28224.643,1,0.100,40070.000,0.200,3546.000,0.300,1514.000,0.500,1477.000,1.000,514.000,5.000,0
"03/03/08","21:13:28",46540.000,"cc",28160.965,1,0.100,39964.000,0.200,3426.000,0.300,1319.000,0.500,1359.000,1.000,472.000,5.000,0
"03/03/08","21:13:34",45652.000,"cc",28352.186,1,0.100,39404.000,0.200,3135.000,0.300,1290.000,0.500,1317.000,1.000,506.000,5.000,0
"03/03/08","21:13:40",46034.000,"cc",28321.100,1,0.100,39583.000,0.200,3343.000,0.300,1307.000,0.500,1340.000,1.000,461.000,5.000,0
"03/03/08","21:13:46",46347.000,"cc",28334.434,1,0.100,39835.000,0.200,3385.000,0.300,1313.000,0.500,1317.000,1.000,497.000,5.000,0
"03/03/08","21:13:52",46199.000,"cc",28300.506,1,0.100,39800.000,0.200,3287.000,0.300,1339.000,0.500,1274.000,1.000,499.000,5.000,0
"03/03/08","21:13:58",47922.000,"cc",28362.596,1,0.100,40991.000,0.200,3563.000,0.300,1416.000,0.500,1402.000,1.000,550.000,5.000,0
"03/03/08","21:14:04",47960.000,"cc",28342.699,1,0.100,41050.000,0.200,3567.000,0.300,1471.000,0.500,1409.000,1.000,463.000,5.000,0
"03/03/08","21:14:10",48114.000,"cc",28292.764,1,0.100,40917.000,0.200,3650.000,0.300,1539.000,0.500,1507.000,1.000,501.000,5.000,0
"03/03/08","21:14:16",47447.000,"cc",28268.301,1,0.100,40310.000,0.200,3613.000,0.300,1550.000,0.500,1471.000,1.000,503.000,5.000,0
"03/03/08","21:14:22",48389.000,"cc",28323.523,1,0.100,41096.000,0.200,3689.000,0.300,1555.000,0.500,1547.000,1.000,502.000,5.000,0
"03/03/08","21:14:28",46747.000,"cc",28351.160,1,0.100,39841.000,0.200,3418.000,0.300,1450.000,0.500,1496.000,1.000,542.000,5.000,0
"03/03/08","21:14:34",45651.000,"cc",28302.078,1,0.100,39261.000,0.200,3235.000,0.300,1334.000,0.500,1331.000,1.000,490.000,5.000,0
"03/03/08","21:14:40",44466.000,"cc",28282.879,1,0.100,38540.000,0.200,3017.000,0.300,1229.000,0.500,1203.000,1.000,477.000,5.000,0
"03/03/08","21:14:46",44193.000,"cc",28359.193,1,0.100,38521.000,0.200,2928.000,0.300,1142.000,0.500,1171.000,1.000,431.000,5.000,0
"03/03/08","21:14:52",43909.000,"cc",28320.238,1,0.100,38583.000,0.200,2810.000,0.300,1007.000,0.500,1117.000,1.000,392.000,5.000,0
"03/03/08","21:14:58",43154.000,"cc",28310.682,1,0.100,38119.000,0.200,2649.000,0.300,943.000,0.500,1070.000,1.000,373.000,5.000,0
"03/03/08","21:15:04",43453.000,"cc",28270.625,1,0.100,38228.000,0.200,2766.000,0.300,1016.000,0.500,1020.000,1.000,423.000,5.000,0
"03/03/08","21:15:10",44508.000,"cc",28371.854,1,0.100,38774.000,0.200,2949.000,0.300,1160.000,0.500,1175.000,1.000,450.000,5.000,0
"03/03/08","21:15:16",43577.000,"cc",28306.592,1,0.100,38130.000,0.200,2777.000,0.300,1122.000,0.500,1168.000,1.000,380.000,5.000,0
"03/03/08","21:15:22",44311.000,"cc",28332.002,1,0.100,38366.000,0.200,3069.000,0.300,1221.000,0.500,1202.000,1.000,453.000,5.000,0
"03/03/08","21:15:28",45643.000,"cc",28298.229,1,0.100,39134.000,0.200,3235.000,0.300,1443.000,0.500,1368.000,1.000,463.000,5.000,0
"03/03/08","21:15:34",48512.000,"cc",28310.467,1,0.100,40004.000,0.200,4201.000,0.300,2079.000,0.500,1695.000,1.000,533.000,5.000,0
"03/03/08","21:15:40",47824.000,"cc",28302.445,1,0.100,40327.000,0.200,3817.000,0.300,1595.000,0.500,1555.000,1.000,530.000,5.000,0
"03/03/08","21:15:46",48659.000,"cc",28289.340,1,0.100,40909.000,0.200,3896.000,0.300,1702.000,0.500,1577.000,1.000,575.000,5.000,0
"03/03/08","21:15:52",52087.000,"cc",28355.883,1,0.100,43754.000,0.200,4473.000,0.300,1720.000,0.500,1605.000,1.000,535.000,5.000,0
"03/03/08","21:15:58",64440.000,"cc",28284.941,1,0.100,54997.000,0.200,5726.000,0.300,1724.000,0.500,1479.000,1.000,514.000,5.000,0
"03/03/08","21:16:04",86913.000,"cc",28270.633,1,0.100,73606.000,0.200,8561.000,0.300,2325.000,0.500,1835.000,1.000,586.000,5.000,0
"03/03/08","21:16:10",72460.000,"cc",28310.131,1,0.100,61241.000,0.200,6877.000,0.300,2075.000,0.500,1712.000,1.000,555.000,5.000,0
"03/03/08","21:16:16",60261.000,"cc",28357.885,1,0.100,51589.000,0.200,5090.000,0.300,1631.000,0.500,1433.000,1.000,518.000,5.000,0
"03/03/08","21:16:22",54147.000,"cc",28337.744,1,0.100,46696.000,0.200,4216.000,0.300,1418.000,0.500,1323.000,1.000,494.000,5.000,0
"03/03/08","21:16:28",48648.000,"cc",28310.389,1,0.100,42123.000,0.200,3530.000,0.300,1268.000,0.500,1276.000,1.000,451.000,5.000,0
"03/03/08","21:16:34",49678.000,"cc",28325.219,1,0.100,43036.000,0.200,3702.000,0.300,1231.000,0.500,1250.000,1.000,459.000,5.000,0
"03/03/08","21:16:40",45764.000,"cc",28312.090,1,0.100,40072.000,0.200,3138.000,0.300,1038.000,0.500,1111.000,1.000,405.000,5.000,0
"03/03/08","21:16:46",45060.000,"cc",28291.363,1,0.100,39492.000,0.200,2995.000,0.300,1022.000,0.500,1119.000,1.000,432.000,5.000,0
"03/03/08","21:16:52",45051.000,"cc",28306.918,1,0.100,39457.000,0.200,3040.000,0.300,1041.000,0.500,1102.000,1.000,411.000,5.000,0
"03/03/08","21:16:58",45647.000,"cc",28320.426,1,0.100,39487.000,0.200,3297.000,0.300,1218.000,0.500,1194.000,1.000,451.000,5.000,0
"03/03/08","21:17:04",46360.000,"cc",28296.098,1,0.100,40427.000,0.200,3181.000,0.300,1170.000,0.500,1134.000,1.000,448.000,5.000,0